Location: Oklahoma City
(35.4680°N, 97.5160°W)
Time: 09:28:00
(UTC-06:00)

BlueWalker 3 - Visible Passes

Search period start: 24 February 2024 00:00
Search period end: 05 March 2024 00:00
Orbit: 486 x 500 km, 53.2° (Epoch: 23 February)

Date Brightness Start Highest point End Pass type
(mag) Time Alt. Az. Time Alt. Az. Time Alt. Az.
29 Feb 4.4 20:21:44 10° NNW 20:22:29 13° N 20:22:29 13° N visible
01 Mar 3.9 19:57:50 10° NNW 19:59:42 16° NNE 19:59:42 16° NNE visible
02 Mar 3.7 19:33:56 10° NNW 19:36:25 17° NNE 19:36:59 16° NE visible
02 Mar 5.2 21:11:17 10° NW 21:11:28 11° NW 21:11:28 11° NW visible
03 Mar 3.8 19:10:00 10° N 19:12:25 16° NNE 19:14:19 12° ENE visible
03 Mar 4.2 20:47:18 10° NW 20:48:49 23° NW 20:48:49 23° NW visible
04 Mar 2.6 20:23:18 10° NW 20:26:14 51° WNW 20:26:14 51° WNW visible
